Stations météo

réclame
Mon MeteoGroup
L9F, Pays-Bas (6207): Température de l'air & dewpoint: 13.01.2020 10:00:00 - 19.01.2020 10:00:00 (CET)L9F, Pays-Bas (6207): Vitesse du vent & gusts: 13.01.2020 10:00:00 - 19.01.2020 10:00:00 (CET)L9F, Pays-Bas (6207): Direction du vent: 13.01.2020 10:00:00 - 19.01.2020 10:00:00 (CET)L9F, Pays-Bas (6207): reduced air pressure: 13.01.2020 10:00:00 - 19.01.2020 10:00:00 (CET)L9F, Pays-Bas (6207): visibility: 13.01.2020 10:00:00 - 19.01.2020 10:00:00 (CET)
Date & Time tt [°C] td [°C] ff [km/h] ff [knt] fx [km/h] fx [knt] dd ppp [hPa] vv [km]
19.01.2020 10:00:00 - - - - - - - - -
19.01.2020 09:00:00 7,9 2,1 52 28 54 29 N 1037,6 10
19.01.2020 08:00:00 7,7 1,7 50 27 54 29 N 1036,4 10
19.01.2020 07:00:00 7,6 2,4 48 26 47 25 NNW 1035,1 10
19.01.2020 06:00:00 7,2 1,7 46 25 54 29 N 1034,0 10
19.01.2020 05:00:00 7,3 2,5 57 31 58 31 NNW 1033,2 10
19.01.2020 04:00:00 7,3 3,0 54 29 54 29 NNW 1032,2 10
19.01.2020 03:00:00 7,1 3,1 50 27 50 27 NW 1031,5 10
19.01.2020 02:00:00 6,7 3,0 44 24 58 31 NW 1030,6 10
19.01.2020 01:00:00 7,2 2,0 50 27 61 33 NW 1029,8 10
19.01.2020 00:00:00 7,0 2,9 48 26 54 29 NW 1029,2 10
18.01.2020 23:00:00 7,2 2,5 52 28 54 29 NW 1028,5 10
18.01.2020 22:00:00 7,2 2,4 48 26 65 35 NW 1028,0 10
18.01.2020 21:00:00 7,2 2,9 48 26 54 29 WNW 1027,5 10
18.01.2020 20:00:00 7,3 2,6 50 27 61 33 NW 1026,8 10
18.01.2020 19:00:00 6,8 2,0 54 29 61 33 WNW 1026,3 10
18.01.2020 18:00:00 7,2 2,6 46 25 50 27 WNW 1025,3 10
18.01.2020 17:00:00 6,9 2,6 46 25 58 31 NW 1024,5 10
18.01.2020 16:00:00 7,1 2,0 50 27 50 27 WNW 1023,6 10
18.01.2020 15:00:00 5,7 0,6 42 23 61 33 WNW 1022,8 10
18.01.2020 14:00:00 6,4 1,1 54 29 58 31 WNW 1022,3 10
18.01.2020 13:00:00 6,9 2,4 34 18 47 25 - 1021,6 10
18.01.2020 12:00:00 6,8 2,4 26 14 47 25 - 1021,2 10
18.01.2020 11:00:00 7,3 2,7 37 20 43 23 W 1020,6 10
18.01.2020 10:00:00 7,3 3,4 35 19 47 25 NW 1019,6 10
18.01.2020 09:00:00 6,4 2,9 34 18 47 25 - 1018,6 10
18.01.2020 08:00:00 6,6 2,9 41 22 47 25 W 1017,9 10
18.01.2020 07:00:00 7,4 4,2 46 25 47 25 W 1017,0 10
18.01.2020 06:00:00 7,1 3,6 50 27 50 27 WSW 1016,5 10
18.01.2020 05:00:00 7,1 3,7 54 29 54 29 WSW 1016,2 10
18.01.2020 04:00:00 7,1 3,6 54 29 54 29 WSW 1016,1 10
18.01.2020 03:00:00 7,4 3,2 52 28 58 31 WSW 1015,6 10
18.01.2020 02:00:00 7,4 3,5 55 30 54 29 WSW 1015,1 10
18.01.2020 01:00:00 7,5 2,8 59 32 61 33 WSW 1014,5 10
18.01.2020 00:00:00 7,4 2,8 50 27 54 29 WSW 1013,9 10
17.01.2020 23:00:00 6,3 2,8 55 30 58 31 W 1013,4 5
17.01.2020 22:00:00 5,6 4,9 59 32 61 33 W 1012,2 5
17.01.2020 21:00:00 7,9 5,1 46 25 50 27 WSW 1010,9 10
17.01.2020 20:00:00 8,8 6,6 41 22 50 27 WSW 1010,7 10
17.01.2020 19:00:00 9,2 7,1 54 29 54 29 SW 1010,2 10
17.01.2020 18:00:00 8,8 8,0 50 27 50 27 SSW 1010,5 10
17.01.2020 17:00:00 9,0 7,8 50 27 50 27 SSW 1010,5 10
17.01.2020 16:00:00 8,8 8,3 46 25 43 23 SSW 1010,2 10
17.01.2020 15:00:00 8,6 8,3 46 25 47 25 SSW 1010,3 10
17.01.2020 14:00:00 8,5 8,1 42 23 43 23 SSW 1010,6 10
17.01.2020 13:00:00 8,5 8,3 41 22 40 21 SSW 1011,1 7
17.01.2020 12:00:00 8,5 8,2 34 18 36 19 SSW 1011,4 10
17.01.2020 11:00:00 8,5 8,1 34 18 36 19 SW 1011,8 10
17.01.2020 10:00:00 8,3 7,9 42 23 50 27 SSW 1011,5 10
17.01.2020 09:00:00 8,3 7,5 44 24 54 29 SSW 1011,6 5
17.01.2020 08:00:00 8,6 6,4 48 26 50 27 S 1011,8 10
17.01.2020 07:00:00 8,7 6,3 50 27 50 27 S 1011,7 10
17.01.2020 06:00:00 8,9 6,4 50 27 50 27 S 1012,1 10
17.01.2020 05:00:00 9,0 6,5 55 30 54 29 S 1012,7 10
17.01.2020 04:00:00 9,1 6,7 57 31 58 31 S 1013,3 10
17.01.2020 03:00:00 9,2 6,7 61 33 61 33 S 1013,8 10
17.01.2020 02:00:00 9,1 6,8 57 31 65 35 S 1014,3 10
17.01.2020 01:00:00 9,1 6,9 61 33 65 35 S 1014,7 10
17.01.2020 00:00:00 9,1 6,7 63 34 61 33 S 1015,1 10
16.01.2020 23:00:00 9,0 6,6 67 36 65 35 S 1015,3 10
16.01.2020 22:00:00 9,1 6,5 65 35 68 37 S 1016,0 10
16.01.2020 21:00:00 8,8 6,6 70 38 68 37 S 1016,4 10
16.01.2020 20:00:00 8,7 6,7 68 37 68 37 S 1017,0 10
16.01.2020 19:00:00 8,5 6,6 59 32 65 35 - 1018,0 10
16.01.2020 18:00:00 8,5 6,5 59 32 65 35 - 1018,5 10
16.01.2020 17:00:00 8,5 6,4 54 29 61 33 - 1019,1 10
16.01.2020 16:00:00 8,0 6,2 48 26 54 29 - 1020,0 10
16.01.2020 15:00:00 7,6 5,7 46 25 47 25 S 1020,6 10
16.01.2020 14:00:00 7,9 5,3 44 24 47 25 S 1021,4 10
16.01.2020 13:00:00 7,7 5,6 46 25 47 25 S 1022,6 10
16.01.2020 12:00:00 7,1 5,9 42 23 43 23 S 1022,8 10
16.01.2020 11:00:00 7,6 6,9 41 22 47 25 SSW 1023,2 10
16.01.2020 10:00:00 7,9 7,2 50 27 54 29 SSW 1023,2 10
16.01.2020 09:00:00 8,4 7,8 46 25 50 27 SSW 1022,8 9
16.01.2020 08:00:00 8,6 7,7 42 23 47 25 SSW 1022,4 10
16.01.2020 07:00:00 9,1 7,2 48 26 50 27 SW 1022,0 10
16.01.2020 06:00:00 9,2 6,5 48 26 47 25 SW 1021,0 10
16.01.2020 05:00:00 9,3 5,7 48 26 50 27 WSW 1020,5 10
16.01.2020 04:00:00 9,3 5,8 50 27 50 27 WSW 1019,8 10
16.01.2020 03:00:00 9,3 5,5 50 27 50 27 WSW 1019,3 10
16.01.2020 02:00:00 9,2 5,5 48 26 54 29 WSW 1018,4 10
16.01.2020 01:00:00 9,3 5,2 43 23 58 31 WSW 1017,9 18
16.01.2020 00:00:00 9,3 5,2 55 30 61 33 WSW 1017,0 10
15.01.2020 23:00:00 9,3 5,0 54 29 58 31 WSW 1015,7 10
15.01.2020 22:00:00 9,1 6,0 59 32 58 31 WSW 1014,7 10
15.01.2020 21:00:00 9,0 5,8 55 30 58 31 WSW 1013,6 10
15.01.2020 20:00:00 8,9 5,7 54 29 58 31 WSW 1012,5 10
15.01.2020 19:00:00 8,7 5,5 54 29 54 29 SW 1011,3 10
15.01.2020 18:00:00 8,5 5,2 50 27 50 27 SW 1010,3 10
15.01.2020 17:00:00 8,1 4,9 37 20 40 21 SW 1008,7 10
15.01.2020 16:00:00 7,6 5,1 48 26 47 25 WSW 1007,5 10
15.01.2020 15:00:00 7,5 4,8 31 17 32 18 WSW 1006,3 10
15.01.2020 14:00:00 7,3 5,3 31 17 40 21 W 1005,1 10
15.01.2020 13:00:00 6,9 6,2 52 28 65 35 SW 1003,8 6
15.01.2020 12:00:00 9,5 7,7 61 33 65 35 SW 1003,2 8
15.01.2020 11:00:00 8,9 8,5 41 22 50 27 SW 1003,5 6
15.01.2020 10:00:00 7,5 7,5 16 9 22 12 SW 1003,1 3,5
15.01.2020 09:00:00 7,7 7,4 24 13 76 41 W 1002,7 4,2
15.01.2020 08:00:00 10,5 7,4 85 46 90 49 SW 1001,3 10
15.01.2020 07:00:00 10,8 7,3 93 50 94 51 SSW 1000,5 10
15.01.2020 06:00:00 10,8 7,6 93 50 94 51 SSW 999,6 10
15.01.2020 05:00:00 10,7 8,0 83 45 90 49 SSW 999,4 10
15.01.2020 04:00:00 10,3 8,7 91 49 94 51 SW 999,4 8
15.01.2020 03:00:00 10,7 9,1 89 48 94 51 SSW 999,2 8
15.01.2020 02:00:00 10,6 8,9 93 50 97 53 SSW 998,7 9
15.01.2020 01:00:00 11,0 9,0 94 51 104 56 SSW 998,3 9
15.01.2020 00:00:00 11,0 8,9 98 53 104 56 SSW 998,1 9
14.01.2020 23:00:00 11,2 8,8 98 53 108 58 SSW 997,3 9
14.01.2020 22:00:00 11,3 9,0 104 56 104 56 SSW 996,4 9
14.01.2020 21:00:00 11,0 9,2 102 55 108 58 SSW 996,5 9
14.01.2020 20:00:00 10,9 9,2 106 57 108 58 SSW 996,0 9
14.01.2020 19:00:00 10,3 9,2 94 51 101 54 SSW 996,3 5
14.01.2020 18:00:00 10,4 8,7 98 53 104 56 SSW 996,8 10
14.01.2020 17:00:00 9,1 8,7 67 36 72 39 S 997,2 5
14.01.2020 16:00:00 9,0 8,3 67 36 65 35 SSW 998,6 10
14.01.2020 15:00:00 8,7 7,8 68 37 68 37 SSW 999,5 10
14.01.2020 14:00:00 8,6 7,4 63 34 65 35 SSW 1000,3 10
14.01.2020 13:00:00 8,7 7,5 65 35 65 35 SSW 1000,7 10
14.01.2020 12:00:00 8,7 7,8 61 33 61 33 SSW 1001,1 8
14.01.2020 11:00:00 9,0 7,5 55 30 58 31 SW 1000,8 10
14.01.2020 10:00:00 8,9 7,5 52 28 50 27 SW 1000,2 10
14.01.2020 09:00:00 8,6 7,6 52 28 50 27 SSW 999,6 10
14.01.2020 08:00:00 8,7 7,4 48 26 50 27 SW 999,1 10
14.01.2020 07:00:00 8,5 7,4 52 28 54 29 SW 998,5 10
14.01.2020 06:00:00 8,3 6,9 54 29 58 31 SW 997,8 10
14.01.2020 05:00:00 7,5 7,2 54 29 58 31 SW 997,0 4,0
14.01.2020 04:00:00 7,5 7,3 39 21 86 47 WSW 997,3 3,0
14.01.2020 03:00:00 9,4 8,5 87 47 90 49 SSW 997,2 7
14.01.2020 02:00:00 9,2 8,5 91 49 94 51 SSW 997,8 6
14.01.2020 01:00:00 9,1 7,9 78 42 79 43 S 998,7 7
14.01.2020 00:00:00 9,3 7,9 74 40 79 43 S 999,6 8
13.01.2020 23:00:00 9,4 7,6 80 43 79 43 S 1000,6 10
13.01.2020 22:00:00 9,2 7,7 65 35 76 41 S 1001,9 10
13.01.2020 21:00:00 8,4 6,8 72 39 72 39 S 1003,2 6
13.01.2020 20:00:00 8,3 6,0 70 38 72 39 S 1004,9 10
13.01.2020 19:00:00 8,0 5,7 63 34 65 35 S 1006,0 10
13.01.2020 18:00:00 8,2 5,6 61 33 61 33 S 1007,8 10
13.01.2020 17:00:00 9,8 6,9 50 27 54 29 S 1009,0 10
13.01.2020 16:00:00 9,2 7,0 52 28 61 33 S 1010,6 10
13.01.2020 15:00:00 7,4 5,6 47 25 61 33 SSW 1011,8 13
13.01.2020 14:00:00 7,3 6,1 59 32 61 33 SSW 1012,6 9
13.01.2020 13:00:00 7,6 6,6 57 31 58 31 SSW 1013,6 10
13.01.2020 12:00:00 7,8 6,8 52 28 54 29 SSW 1014,6 10
13.01.2020 11:00:00 7,8 7,0 50 27 54 29 SSW 1015,4 5
13.01.2020 10:00:00 8,6 6,1 44 24 47 25 SW 1015,5 10

tt = Température de l'air
td = dewpoint
ff = Vitesse du vent
fx = gusts
dd = Direction du vent
ppp = reduced air pressure
vv = visibility

stations d'obs. à proximité